Albuquerque Double Eagle, NM

4:46 AM MDT on April 24, 2017 (GMT -0600)
Double Eagle Ii

Weather History for KAEG - March, 2013

Change the Weather History Date:

Wednesday, March 20, 2013

  Actual Average (KABQ) Record (KABQ)
Temperature  
Mean Temperature 40 °F -  
Max Temperature 57 °F 62 °F 82 °F (2004)
Min Temperature 24 °F 33 °F 20 °F (1937)
Degree Days  
Heating Degree Days 24    
Moisture  
Dew Point 12 °F    
Average Humidity 33    
Maximum Humidity 47    
Minimum Humidity 19    
Precipitation  
Precipitation 0.00 in - - ()
Sea Level Pressure  
Sea Level Pressure 30.17 in    
Wind  
Wind Speed 8 mph (NNW)    
Max Wind Speed 16 mph    
Max Gust Speed -    
Visibility 10 miles    
Events      
Averages and records for this station are not official NWS values.
T = Trace of Precipitation, MM = Missing Value Source: NWS Daily Summary

Daily Weather History Graph

Daily Weather History Graph

Search for Another Location

Airport or City:

Trip Planner

Search our weather history database for the weather conditions in past years. The results will help you decide how hot, cold, wet, or windy it might be!

Date:

Astronomy

Mar. 20, 2013 Rise Set
Actual Time 7:10 AM MDT 7:19 PM MDT
Civil Twilight 6:45 AM MDT 7:44 PM MDT
Nautical Twilight 6:15 AM MDT 8:14 PM MDT
Astronomical Twilight 5:45 AM MDT 8:43 PM MDT
Moon 1:08 PM MDT (3/20) 2:40 AM MDT (3/20)
Length of Visible Light 12h 59m
Length of Day
12h 08m
First Quarter, 60% of the Moon is Illuminated
Mar 20
First Quarter
Mar 27
Full
Apr 2
Last Quarter
Apr 10
New
Apr 18
First Quarter

Hourly Weather History & Observations

Time (MDT) Temp. Windchill Dew Point Humidity Pressure Visibility Wind Dir Wind Speed Gust Speed Precip Events Conditions
12:15 AM 39.2 °F 33.0 °F 10.4 °F 31% 30.23 in 10.0 mi NNW 9.2 mph - N/A   Clear
12:35 AM 39.2 °F 32.5 °F 10.4 °F 31% 30.23 in 10.0 mi NNW 10.4 mph - N/A   Clear
12:55 AM 39.2 °F 32.5 °F 12.2 °F 33% 30.23 in 10.0 mi NNW 10.4 mph - N/A   Clear
1:15 AM 37.4 °F 30.8 °F 10.4 °F 33% 30.24 in 10.0 mi NNW 9.2 mph - N/A   Clear
1:35 AM 37.4 °F 31.4 °F 10.4 °F 33% 30.24 in 10.0 mi NNW 8.1 mph - N/A   Clear
1:55 AM 37.4 °F 33.8 °F 10.4 °F 33% 30.24 in 10.0 mi NE 4.6 mph - N/A   Clear
2:15 AM 32.0 °F 25.6 °F 8.6 °F 38% 30.24 in 10.0 mi NNE 6.9 mph - N/A   Clear
2:35 AM 33.8 °F 27.0 °F 10.4 °F 38% 30.24 in 10.0 mi NNE 8.1 mph - N/A   Clear
2:55 AM 32.0 °F 25.6 °F 10.4 °F 41% 30.24 in 10.0 mi North 6.9 mph - N/A   Clear
3:15 AM 32.0 °F 26.4 °F 8.6 °F 38% 30.23 in 10.0 mi North 5.8 mph - N/A   Clear
3:35 AM 32.0 °F 25.6 °F 8.6 °F 38% 30.23 in 10.0 mi North 6.9 mph - N/A   Clear
3:55 AM 28.4 °F 23.3 °F 6.8 °F 40% 30.23 in 10.0 mi NNW 4.6 mph - N/A   Clear
4:15 AM 28.4 °F 24.6 °F 8.6 °F 43% 30.23 in 10.0 mi NNE 3.5 mph - N/A   Clear
4:35 AM 28.4 °F - 8.6 °F 43% 30.23 in 10.0 mi Calm Calm - N/A   Clear
4:55 AM 24.8 °F - 6.8 °F 46% 30.23 in 10.0 mi Calm Calm - N/A   Clear
5:15 AM 24.8 °F 17.9 °F 6.8 °F 46% 30.24 in 10.0 mi NNW 5.8 mph - N/A   Clear
5:35 AM 26.6 °F 18.2 °F 8.6 °F 47% 30.25 in 10.0 mi NNW 8.1 mph - N/A   Clear
5:50 AM 28.4 °F 19.7 °F 8.6 °F 43% 30.25 in 10.0 mi NW 9.2 mph - N/A   Clear
6:50 AM 26.6 °F 17.5 °F 8.6 °F 47% 30.26 in 10.0 mi NNW 9.2 mph - N/A   Clear
7:50 AM 26.6 °F 22.6 °F 8.6 °F 47% 30.27 in 10.0 mi North 3.5 mph - N/A   Clear
8:50 AM 37.4 °F 32.1 °F -2.2 °F 19% 30.28 in 10.0 mi North 6.9 mph - N/A   Clear
9:50 AM 41.0 °F 35.8 °F 14.0 °F 33% 30.27 in 10.0 mi NE 8.1 mph - N/A   Clear
10:50 AM 46.4 °F 44.3 °F 14.0 °F 27% 30.25 in 10.0 mi NNE 4.6 mph - N/A   Partly Cloudy
11:50 AM 48.2 °F - 15.8 °F 27% 30.22 in 10.0 mi Variable 4.6 mph - N/A   Overcast
12:50 PM 51.8 °F - 15.8 °F 24% 30.18 in 10.0 mi SSE 10.4 mph - N/A   Overcast
1:50 PM 53.6 °F - 15.8 °F 22% 30.13 in 10.0 mi SSE 16.1 mph - N/A   Overcast
2:50 PM 55.4 °F - 15.8 °F 21% 30.07 in 10.0 mi SSE 13.8 mph - N/A   Overcast
3:50 PM 57.2 °F - 15.8 °F 20% 30.05 in 10.0 mi South 11.5 mph - N/A   Overcast
4:50 PM 57.2 °F - 15.8 °F 20% 30.02 in 10.0 mi South 10.4 mph - N/A   Mostly Cloudy
5:50 PM 57.2 °F - 15.8 °F 20% 30.00 in 10.0 mi SSE 12.7 mph - N/A   Overcast
6:50 PM 55.4 °F - 15.8 °F 21% 29.98 in 10.0 mi South 9.2 mph - N/A   Overcast
7:50 PM 53.6 °F - 15.8 °F 22% 29.98 in 10.0 mi West 8.1 mph - N/A   Overcast
8:50 PM 53.6 °F - 15.8 °F 22% 29.97 in 10.0 mi SW 4.6 mph - N/A   Overcast
11:15 PM 53.6 °F - 23.0 °F 30% 29.94 in 10.0 mi WNW 4.6 mph - N/A   Scattered Clouds
11:35 PM 53.6 °F - 23.0 °F 30% 29.94 in 10.0 mi WNW 9.2 mph - N/A   Clear